Location: Saint-Hippolyte
(43.6394°N, 4.7559°E)
Time: 14:50:36
(UTC+00:00)

Lacrosse 5 - Pass Details

Date: 24 October 2020
Orbit: 716 x 723 km, 57.0° (Epoch: 06 November)

Event Time Altitude Azimuth Distance (km) Brightness Sun altitude
Rises 17:26:53 0° 273° (W) 3,117 7.2 -8.6°
Reaches altitude 10° 17:29:42 10° 287° (WNW) 2,198 5.5 -9.1°
Maximum altitude 17:33:45 24° 341° (NNW) 1,478 3.6 -9.9°
Drops below altitude 10° 17:37:49 10° 34° (NE) 2,204 4.0 -10.6°
Enters shadow 17:38:58 - 41° (NE) 2,557 4.3 -10.8°
